Weather History for Gadsden, AL

Change the Weather History Date:

Saturday, January 19, 2013

  Actual Average Record
Temperature  
Mean Temperature 40 °F -  
Max Temperature 55 °F 49 °F 71 °F (1933)
Min Temperature 24 °F 29 °F 2 °F (1940)
Degree Days  
Heating Degree Days 26    
Moisture  
Dew Point 28 °F    
Average Humidity 73    
Maximum Humidity 93    
Minimum Humidity 36    
Precipitation  
Precipitation 0.00 in - - ()
Sea Level Pressure  
Sea Level Pressure 30.34 in    
Wind  
Wind Speed 1 mph (SSW)    
Max Wind Speed 8 mph    
Max Gust Speed -    
Visibility 10 miles    
Events      
Averages and records for this station are not official NWS values.
T = Trace of Precipitation, MM = Missing Value Source: NWS Daily Summary

Daily Weather History Graph

Daily Weather History Graph

Search for Another Location

Airport:

Trip Planner

Search our weather history database for the weather conditions in past years. The results will help you decide how hot, cold, wet, or windy it might be!

Date:

Astronomy

Jan. 19, 2013 Rise Set
Actual Time 6:48 AM CST 5:02 PM CST
Civil Twilight 6:21 AM CST 5:29 PM CST
Nautical Twilight 5:50 AM CST 5:59 PM CST
Astronomical Twilight 5:20 AM CST 6:29 PM CST
Moon 11:25 AM CST (1/19) 12:26 AM CST (1/19)
Length of Visible Light 11h 08m
Length of Day
10h 14m
First Quarter, 57% of the Moon is Illuminated
Jan 19
First Quarter
Jan 26
Full
Feb 3
Last Quarter
Feb 10
New
Feb 17
First Quarter

Hourly Weather History & Observations

Time (CST) Temp. Windchill Dew Point Humidity Pressure Visibility Wind Dir Wind Speed Gust Speed Precip Events Conditions
12:15 AM 28.4 °F - 26.6 °F 93% 30.42 in 10.0 mi Calm Calm - N/A   Clear
12:35 AM 28.4 °F - 24.8 °F 86% 30.41 in 10.0 mi Calm Calm - N/A   Clear
12:55 AM 28.4 °F - 26.6 °F 93% 30.41 in 10.0 mi Calm Calm - N/A   Clear
1:15 AM 28.4 °F - 24.8 °F 86% 30.41 in 10.0 mi Calm Calm - N/A   Clear
1:35 AM 26.6 °F - 24.8 °F 93% 30.41 in 10.0 mi Calm Calm - N/A   Clear
1:55 AM 26.6 °F 22.6 °F 24.8 °F 93% 30.41 in 10.0 mi SW 3.5 mph - N/A   Clear
2:15 AM 26.6 °F - 24.8 °F 93% 30.42 in 10.0 mi Calm Calm - N/A   Clear
2:35 AM 26.6 °F 22.6 °F 23.0 °F 86% 30.43 in 10.0 mi SW 3.5 mph - N/A   Clear
2:55 AM 24.8 °F - 21.2 °F 86% 30.43 in 10.0 mi Calm Calm - N/A   Clear
3:15 AM 26.6 °F - 24.8 °F 93% 30.43 in 10.0 mi Calm Calm - N/A   Clear
3:35 AM 26.6 °F - 24.8 °F 93% 30.42 in 10.0 mi Calm Calm - N/A   Clear
3:55 AM 26.6 °F - 24.8 °F 93% 30.42 in 10.0 mi Calm Calm - N/A   Clear
4:15 AM 26.6 °F - 23.0 °F 86% 30.42 in 10.0 mi Calm Calm - N/A   Clear
4:35 AM 26.6 °F - 23.0 °F 86% 30.41 in 10.0 mi Calm Calm - N/A   Clear
4:55 AM 26.6 °F - 24.8 °F 93% 30.41 in 10.0 mi Calm Calm - N/A   Clear
5:15 AM 26.6 °F - 23.0 °F 86% 30.42 in 10.0 mi Calm Calm - N/A   Clear
5:35 AM 24.8 °F - 23.0 °F 93% 30.42 in 10.0 mi Calm Calm - N/A   Clear
5:55 AM 24.8 °F - 21.2 °F 86% 30.41 in 10.0 mi Calm Calm - N/A   Clear
6:15 AM 24.8 °F - 23.0 °F 93% 30.41 in 10.0 mi Calm Calm - N/A   Partly Cloudy
6:35 AM 26.6 °F - 23.0 °F 86% 30.42 in 10.0 mi Calm Calm - N/A   Scattered Clouds
6:55 AM 24.8 °F - 23.0 °F 93% 30.42 in 10.0 mi Calm Calm - N/A   Mostly Cloudy
7:15 AM 24.8 °F - 23.0 °F 93% 30.42 in 10.0 mi Calm Calm - N/A   Clear
7:35 AM 26.6 °F - 24.8 °F 93% 30.43 in 10.0 mi Calm Calm - N/A   Clear
7:55 AM 28.4 °F - 26.6 °F 93% 30.43 in 10.0 mi Calm Calm - N/A   Clear
8:15 AM 30.2 °F - 28.4 °F 93% 30.43 in 10.0 mi Calm Calm - N/A   Clear
8:35 AM 32.0 °F - 30.2 °F 93% 30.44 in 10.0 mi Calm Calm - N/A   Clear
8:55 AM 35.6 °F - 32.0 °F 87% 30.44 in 10.0 mi Calm Calm - N/A   Clear
9:15 AM 37.4 °F - 33.8 °F 87% 30.44 in 10.0 mi Calm Calm - N/A   Clear
9:35 AM 39.2 °F - 33.8 °F 81% 30.45 in 10.0 mi Calm Calm - N/A   Clear
9:55 AM 42.8 °F - 35.6 °F 76% 30.44 in 10.0 mi Calm Calm - N/A   Clear
10:15 AM 44.6 °F - 33.8 °F 66% 30.43 in 10.0 mi Calm Calm - N/A   Clear
10:35 AM 46.4 °F - 33.8 °F 62% 30.42 in 10.0 mi Calm Calm - N/A   Clear
10:55 AM 46.4 °F - 30.2 °F 53% 30.40 in 10.0 mi Calm Calm - N/A   Clear
11:15 AM 48.2 °F - 33.8 °F 58% 30.39 in 10.0 mi Calm Calm - N/A   Clear
11:35 AM 50.0 °F - 30.2 °F 47% 30.37 in 10.0 mi SSW 3.5 mph - N/A   Clear
11:55 AM 51.8 °F - 28.4 °F 41% 30.35 in 10.0 mi Calm Calm - N/A   Clear
12:15 PM 51.8 °F - 28.4 °F 41% 30.34 in 10.0 mi Calm Calm - N/A   Clear
12:35 PM 51.8 °F - 28.4 °F 41% 30.32 in 10.0 mi Calm Calm - N/A   Clear
12:55 PM 53.6 °F - 30.2 °F 41% 30.31 in 10.0 mi Calm Calm - N/A   Clear
1:15 PM 53.6 °F - 28.4 °F 38% 30.30 in 10.0 mi Calm Calm - N/A   Clear
1:35 PM 53.6 °F - 28.4 °F 38% 30.30 in 10.0 mi SSW 4.6 mph - N/A   Clear
1:55 PM 53.6 °F - 28.4 °F 38% 30.29 in 10.0 mi Calm Calm - N/A   Clear
2:15 PM 55.4 °F - 28.4 °F 36% 30.28 in 10.0 mi South 6.9 mph - N/A   Clear
2:35 PM 55.4 °F - 28.4 °F 36% 30.28 in 10.0 mi Calm Calm - N/A   Clear
2:55 PM 55.4 °F - 28.4 °F 36% 30.27 in 10.0 mi Calm Calm - N/A   Clear
3:15 PM 55.4 °F - 28.4 °F 36% 30.26 in 10.0 mi South 8.1 mph - N/A   Clear
3:35 PM 55.4 °F - 28.4 °F 36% 30.26 in 10.0 mi SSW 5.8 mph - N/A   Clear
3:55 PM 55.4 °F - 28.4 °F 36% 30.26 in 10.0 mi SSW 4.6 mph - N/A   Clear
4:15 PM 53.6 °F - 28.4 °F 38% 30.26 in 10.0 mi South 3.5 mph - N/A   Clear
4:35 PM 51.8 °F - 28.4 °F 41% 30.26 in 10.0 mi South 3.5 mph - N/A   Clear
4:55 PM 51.8 °F - 28.4 °F 41% 30.26 in 10.0 mi South 3.5 mph - N/A   Clear
5:15 PM 50.0 °F - 28.4 °F 43% 30.25 in 10.0 mi Calm Calm - N/A   Clear
5:35 PM 48.2 °F - 28.4 °F 46% 30.25 in 10.0 mi South 3.5 mph - N/A   Clear
5:55 PM 42.8 °F - 30.2 °F 61% 30.26 in 10.0 mi Calm Calm - N/A   Clear
6:15 PM 41.0 °F - 32.0 °F 70% 30.26 in 10.0 mi Calm Calm - N/A   Clear
6:35 PM 37.4 °F 34.9 °F 32.0 °F 81% 30.26 in 10.0 mi SW 3.5 mph - N/A   Clear
6:55 PM 37.4 °F - 32.0 °F 81% 30.26 in 10.0 mi Calm Calm - N/A   Clear
7:15 PM 37.4 °F - 30.2 °F 75% 30.26 in 10.0 mi Calm Calm - N/A   Clear
7:35 PM 35.6 °F - 30.2 °F 81% 30.26 in 10.0 mi Calm Calm - N/A   Clear
7:55 PM 35.6 °F - 30.2 °F 81% 30.26 in 10.0 mi Calm Calm - N/A   Clear
8:15 PM 35.6 °F - 30.2 °F 81% 30.26 in 10.0 mi Calm Calm - N/A   Clear
8:35 PM 35.6 °F - 30.2 °F 81% 30.25 in 10.0 mi Calm Calm - N/A   Clear
8:55 PM 33.8 °F - 30.2 °F 87% 30.25 in 10.0 mi Calm Calm - N/A   Clear
9:15 PM 33.8 °F - 30.2 °F 87% 30.25 in 10.0 mi Calm Calm - N/A   Clear
9:35 PM 33.8 °F - 30.2 °F 87% 30.25 in 10.0 mi Calm Calm - N/A   Clear
9:55 PM 32.0 °F - 28.4 °F 87% 30.24 in 10.0 mi Calm Calm - N/A   Clear
10:15 PM 32.0 °F - 28.4 °F 87% 30.24 in 10.0 mi Calm Calm - N/A   Clear
10:35 PM 32.0 °F - 28.4 °F 87% 30.24 in 10.0 mi Calm Calm - N/A   Clear
10:55 PM 30.2 °F - 28.4 °F 93% 30.24 in 10.0 mi Calm Calm - N/A   Clear
11:15 PM 30.2 °F - 28.4 °F 93% 30.23 in 10.0 mi Calm Calm - N/A   Clear
11:35 PM 30.2 °F - 28.4 °F 93% 30.23 in 10.0 mi Calm Calm - N/A   Clear
11:55 PM 30.2 °F - 28.4 °F 93% 30.23 in 10.0 mi Calm Calm - N/A   Clear